Location: Antioch
(38.0049°N, 121.8058°W)
Time: 05:46:14
(UTC+00:00)

Aureole 3 - Pass Details

Date: 11 February 2026
Orbit: 372 x 1032 km, 82.5° (Epoch: 5 March)

Event Time Altitude Azimuth Distance (km) Brightness Sun altitude
Rises 12:57:25 0° 352° (N) 3,476 7.3 -25.0°
Reaches altitude 10° 13:00:04 10° 353° (N) 2,435 6.5 -24.5°
Maximum altitude 13:05:33 88° 81° (E) 721 3.8 -23.4°
Drops below altitude 10° 13:10:00 10° 173° (S) 1,982 6.2 -22.5°
Sets 13:11:59 0° 174° (S) 2,785 7.0 -22.1°
